Time,TemperatureF,DewpointF,PressureIn,WindDirection,WindDirectionDegrees,WindSpeedMPH,WindSpeedGustMPH,Humidity,HourlyPrecipIn,Conditions,Clouds,dailyrainin,SoftwareType,DateUTC
2013-06-13 00:02:00,44.0,32.0,-100.00,East,79,11.0,19.0,63,-99.99,,,-99.99,,2013-06-13 06:02:00,
2013-06-13 00:11:00,45.0,33.0,-100.00,ENE,76,9.0,16.0,63,-99.99,,,-99.99,,2013-06-13 06:11:00,
2013-06-13 00:22:00,45.0,33.0,-100.00,ENE,76,9.0,16.0,63,-99.99,,,-99.99,,2013-06-13 06:22:00,
2013-06-13 00:33:00,45.0,33.0,-100.00,ENE,77,4.0,9.0,62,-99.99,,,-99.99,,2013-06-13 06:33:00,
2013-06-13 00:44:00,46.0,33.0,-100.00,SE,142,8.0,12.0,60,-99.99,,,-99.99,,2013-06-13 06:44:00,
2013-06-13 00:52:00,46.0,33.0,-100.00,SE,142,8.0,12.0,60,-99.99,,,-99.99,,2013-06-13 06:52:00,
2013-06-13 01:01:00,46.0,32.0,-100.00,South,188,11.0,24.0,57,-99.99,,,-99.99,,2013-06-13 07:01:00,
2013-06-13 01:11:00,48.0,31.0,-100.00,SSW,201,10.0,22.0,51,-99.99,,,-99.99,,2013-06-13 07:11:00,
2013-06-13 01:22:00,48.0,31.0,-100.00,SSW,201,10.0,22.0,51,-99.99,,,-99.99,,2013-06-13 07:22:00,
2013-06-13 01:33:00,47.0,31.0,-100.00,SW,236,4.0,17.0,53,-99.99,,,-99.99,,2013-06-13 07:33:00,
2013-06-13 01:42:00,47.0,30.0,-100.00,SW,234,6.0,14.0,51,-99.99,,,-99.99,,2013-06-13 07:42:00,
2013-06-13 01:52:00,48.0,31.0,-100.00,SSW,199,12.0,43.0,51,-99.99,,,-99.99,,2013-06-13 07:52:00,
2013-06-13 02:01:00,48.0,31.0,-100.00,SSW,199,12.0,43.0,51,-99.99,,,-99.99,,2013-06-13 08:01:00,
2013-06-13 02:11:00,48.0,30.0,-100.00,SW,236,20.0,36.0,50,-99.99,,,-99.99,,2013-06-13 08:11:00,
2013-06-13 02:22:00,48.0,30.0,-100.00,SW,236,20.0,36.0,50,-99.99,,,-99.99,,2013-06-13 08:22:00,
2013-06-13 02:32:00,49.0,30.0,-100.00,SW,218,14.0,29.0,48,-99.99,,,-99.99,,2013-06-13 08:32:00,
2013-06-13 02:42:00,48.0,31.0,-100.00,WSW,246,7.0,19.0,51,-99.99,,,-99.99,,2013-06-13 08:42:00,
2013-06-13 02:52:00,48.0,31.0,-100.00,WSW,246,7.0,19.0,51,-99.99,,,-99.99,,2013-06-13 08:52:00,
2013-06-13 03:01:00,48.0,31.0,-100.00,West,273,5.0,15.0,51,-99.99,,,-99.99,,2013-06-13 09:01:00,
2013-06-13 03:11:00,47.0,30.0,-100.00,WNW,299,8.0,10.0,52,-99.99,,,-99.99,,2013-06-13 09:11:00,
2013-06-13 03:22:00,47.0,30.0,-100.00,WNW,299,8.0,10.0,52,-99.99,,,-99.99,,2013-06-13 09:22:00,
2013-06-13 03:32:00,47.0,30.0,-100.00,WNW,293,9.0,11.0,52,-99.99,,,-99.99,,2013-06-13 09:32:00,
2013-06-13 03:42:00,48.0,31.0,-100.00,WNW,292,8.0,12.0,51,-99.99,,,-99.99,,2013-06-13 09:42:00,
2013-06-13 03:52:00,48.0,31.0,-100.00,WNW,292,8.0,12.0,51,-99.99,,,-99.99,,2013-06-13 09:52:00,
2013-06-13 04:01:00,48.0,31.0,-100.00,West,262,4.0,10.0,51,-99.99,,,-99.99,,2013-06-13 10:01:00,
2013-06-13 04:11:00,47.0,31.0,-100.00,SSW,199,2.0,5.0,53,-99.99,,,-99.99,,2013-06-13 10:11:00,
2013-06-13 04:22:00,47.0,31.0,-100.00,SSW,199,2.0,5.0,53,-99.99,,,-99.99,,2013-06-13 10:22:00,
2013-06-13 04:33:00,46.0,31.0,-100.00,SSE,164,1.0,4.0,56,-99.99,,,-99.99,,2013-06-13 10:33:00,
2013-06-13 04:42:00,45.0,32.0,-100.00,SSE,165,3.0,4.0,59,-99.99,,,-99.99,,2013-06-13 10:42:00,
2013-06-13 04:53:00,45.0,32.0,-100.00,South,184,1.0,4.0,59,-99.99,,,-99.99,,2013-06-13 10:53:00,
2013-06-13 05:01:00,45.0,32.0,-100.00,South,184,1.0,4.0,59,-99.99,,,-99.99,,2013-06-13 11:01:00,
2013-06-13 05:11:00,45.0,31.0,-100.00,South,189,2.0,5.0,58,-99.99,,,-99.99,,2013-06-13 11:11:00,
2013-06-13 05:23:00,45.0,30.0,-100.00,WNW,282,1.0,5.0,56,-99.99,,,-99.99,,2013-06-13 11:23:00,
2013-06-13 05:32:00,45.0,30.0,-100.00,WNW,282,1.0,5.0,56,-99.99,,,-99.99,,2013-06-13 11:32:00,
2013-06-13 05:42:00,45.0,31.0,-100.00,SE,145,4.0,8.0,58,-99.99,,,-99.99,,2013-06-13 11:42:00,
2013-06-13 05:52:00,45.0,32.0,-100.00,SSE,156,4.0,7.0,60,-99.99,,,-99.99,,2013-06-13 11:52:00,
2013-06-13 06:01:00,45.0,32.0,-100.00,SSE,156,4.0,7.0,60,-99.99,,,-99.99,,2013-06-13 12:01:00,
2013-06-13 06:11:00,45.0,32.0,-100.00,SSE,166,3.0,7.0,59,-99.99,,,-99.99,,2013-06-13 12:11:00,
2013-06-13 06:22:00,45.0,31.0,-100.00,SSE,149,5.0,8.0,57,-99.99,,,-99.99,,2013-06-13 12:22:00,
2013-06-13 06:34:00,45.0,31.0,-100.00,SSE,149,5.0,8.0,57,-99.99,,,-99.99,,2013-06-13 12:34:00,
2013-06-13 06:42:00,45.0,31.0,-100.00,SSE,156,6.0,8.0,58,-99.99,,,-99.99,,2013-06-13 12:42:00,
2013-06-13 06:52:00,45.0,31.0,-100.00,South,169,4.0,6.0,57,-99.99,,,-99.99,,2013-06-13 12:52:00,
2013-06-13 07:01:00,45.0,31.0,-100.00,South,169,4.0,6.0,57,-99.99,,,-99.99,,2013-06-13 13:01:00,
2013-06-13 07:11:00,46.0,31.0,-100.00,South,171,4.0,5.0,56,-99.99,,,-99.99,,2013-06-13 13:11:00,
2013-06-13 07:21:00,46.0,31.0,-100.00,South,171,4.0,5.0,56,-99.99,,,-99.99,,2013-06-13 13:21:00,
2013-06-13 07:32:00,47.0,32.0,-100.00,SSE,167,7.0,9.0,55,-99.99,,,-99.99,,2013-06-13 13:32:00,
2013-06-13 07:43:00,47.0,31.0,-100.00,SSE,165,6.0,8.0,54,-99.99,,,-99.99,,2013-06-13 13:43:00,
2013-06-13 07:53:00,47.0,31.0,-100.00,SSE,165,6.0,8.0,54,-99.99,,,-99.99,,2013-06-13 13:53:00,
2013-06-13 08:01:00,49.0,33.0,-100.00,SSE,156,5.0,7.0,54,-99.99,,,-99.99,,2013-06-13 14:01:00,
2013-06-13 08:11:00,49.0,33.0,-100.00,South,172,5.0,10.0,53,-99.99,,,-99.99,,2013-06-13 14:11:00,
2013-06-13 08:22:00,49.0,33.0,-100.00,South,172,5.0,10.0,53,-99.99,,,-99.99,,2013-06-13 14:22:00,
2013-06-13 08:33:00,48.0,34.0,-100.00,South,187,10.0,14.0,58,-99.99,,,-99.99,,2013-06-13 14:33:00,
2013-06-13 08:43:00,47.0,32.0,-100.00,West,266,12.0,21.0,56,-99.99,,,-99.99,,2013-06-13 14:43:00,
2013-06-13 08:53:00,47.0,32.0,-100.00,West,266,12.0,21.0,56,-99.99,,,-99.99,,2013-06-13 14:53:00,
2013-06-13 09:01:00,48.0,32.0,-100.00,WSW,244,10.0,20.0,54,-99.99,,,-99.99,,2013-06-13 15:01:00,
2013-06-13 09:11:00,52.0,35.0,-100.00,SSE,167,7.0,15.0,52,-99.99,,,-99.99,,2013-06-13 15:11:00,
2013-06-13 09:21:00,52.0,31.0,-100.00,South,177,11.0,24.0,45,-99.99,,,-99.99,,2013-06-13 15:21:00,
2013-06-13 09:33:00,52.0,31.0,-100.00,South,177,11.0,24.0,45,-99.99,,,-99.99,,2013-06-13 15:33:00,
2013-06-13 09:43:00,52.0,32.0,-100.00,South,169,9.0,19.0,46,-99.99,,,-99.99,,2013-06-13 15:43:00,
2013-06-13 09:53:00,52.0,32.0,-100.00,South,169,9.0,19.0,46,-99.99,,,-99.99,,2013-06-13 15:53:00,
2013-06-13 10:01:00,49.0,32.0,-100.00,South,186,13.0,25.0,51,-99.99,,,-99.99,,2013-06-13 16:01:00,
2013-06-13 10:11:00,48.0,34.0,-100.00,SSE,168,17.0,27.0,57,-99.99,,,-99.99,,2013-06-13 16:11:00,
2013-06-13 10:22:00,46.0,32.0,-100.00,South,170,16.0,25.0,58,-99.99,,,-99.99,,2013-06-13 16:22:00,
2013-06-13 10:33:00,46.0,32.0,-100.00,South,170,16.0,25.0,58,-99.99,,,-99.99,,2013-06-13 16:33:00,
2013-06-13 10:43:00,50.0,28.0,-100.00,South,185,18.0,35.0,43,-99.99,,,-99.99,,2013-06-13 16:43:00,
2013-06-13 10:53:00,50.0,28.0,-100.00,South,185,18.0,35.0,43,-99.99,,,-99.99,,2013-06-13 16:53:00,
2013-06-13 11:02:00,52.0,31.0,-100.00,South,183,14.0,24.0,45,-99.99,,,-99.99,,2013-06-13 17:02:00,
2013-06-13 11:11:00,51.0,33.0,-100.00,SSE,165,13.0,18.0,50,-99.99,,,-99.99,,2013-06-13 17:11:00,
2013-06-13 11:24:00,51.0,33.0,-100.00,SSE,165,13.0,18.0,50,-99.99,,,-99.99,,2013-06-13 17:24:00,
2013-06-13 11:32:00,51.0,32.0,-100.00,SSE,160,13.0,21.0,48,-99.99,,,-99.99,,2013-06-13 17:32:00,
2013-06-13 11:43:00,52.0,33.0,-100.00,SSE,153,11.0,18.0,49,-99.99,,,-99.99,,2013-06-13 17:43:00,
2013-06-13 11:53:00,52.0,33.0,-100.00,SSE,153,11.0,18.0,49,-99.99,,,-99.99,,2013-06-13 17:53:00,
2013-06-13 12:02:00,51.0,34.0,-100.00,South,173,11.0,22.0,51,-99.99,,,-99.99,,2013-06-13 18:02:00,
2013-06-13 12:11:00,53.0,32.0,-100.00,South,176,10.0,22.0,45,-99.99,,,-99.99,,2013-06-13 18:11:00,
2013-06-13 12:22:00,53.0,32.0,-100.00,South,176,10.0,22.0,45,-99.99,,,-99.99,,2013-06-13 18:22:00,
2013-06-13 12:33:00,55.0,33.0,-100.00,SSE,160,10.0,16.0,43,-99.99,,,-99.99,,2013-06-13 18:33:00,
2013-06-13 12:43:00,56.0,33.0,-100.00,SSE,159,10.0,20.0,42,-99.99,,,-99.99,,2013-06-13 18:43:00,
2013-06-13 12:52:00,56.0,33.0,-100.00,SSE,159,10.0,20.0,42,-99.99,,,-99.99,,2013-06-13 18:52:00,
2013-06-13 13:01:00,57.0,34.0,-100.00,SSE,157,12.0,19.0,42,-99.99,,,-99.99,,2013-06-13 19:01:00,
2013-06-13 13:11:00,57.0,34.0,-100.00,SSE,166,8.0,13.0,41,-99.99,,,-99.99,,2013-06-13 19:11:00,
2013-06-13 13:22:00,58.0,33.0,-100.00,SSE,160,8.0,16.0,38,-99.99,,,-99.99,,2013-06-13 19:22:00,
2013-06-13 13:32:00,58.0,33.0,-100.00,SSE,160,8.0,16.0,38,-99.99,,,-99.99,,2013-06-13 19:32:00,
2013-06-13 13:43:00,58.0,33.0,-100.00,SSE,153,11.0,17.0,39,-99.99,,,-99.99,,2013-06-13 19:43:00,
2013-06-13 13:53:00,58.0,33.0,-100.00,SSE,153,11.0,17.0,39,-99.99,,,-99.99,,2013-06-13 19:53:00,
2013-06-13 14:01:00,58.0,33.0,-100.00,SSE,160,9.0,15.0,38,-99.99,,,-99.99,,2013-06-13 20:01:00,
2013-06-13 14:11:00,59.0,32.0,-100.00,SSE,161,10.0,15.0,36,-99.99,,,-99.99,,2013-06-13 20:11:00,
2013-06-13 14:22:00,60.0,31.0,-100.00,SSE,167,17.0,29.0,33,-99.99,,,-99.99,,2013-06-13 20:22:00,
2013-06-13 14:32:00,60.0,31.0,-100.00,SSE,167,17.0,29.0,33,-99.99,,,-99.99,,2013-06-13 20:32:00,
2013-06-13 14:43:00,60.0,29.0,-100.00,South,173,16.0,28.0,31,-99.99,,,-99.99,,2013-06-13 20:43:00,
2013-06-13 14:53:00,60.0,29.0,-100.00,South,173,16.0,28.0,31,-99.99,,,-99.99,,2013-06-13 20:53:00,
2013-06-13 15:01:00,62.0,29.0,-100.00,South,177,16.0,28.0,29,-99.99,,,-99.99,,2013-06-13 21:01:00,
2013-06-13 15:11:00,62.0,33.0,-100.00,WSW,258,7.0,23.0,33,-99.99,,,-99.99,,2013-06-13 21:11:00,
2013-06-13 15:22:00,62.0,33.0,-100.00,WSW,258,7.0,23.0,33,-99.99,,,-99.99,,2013-06-13 21:22:00,
2013-06-13 15:34:00,63.0,38.0,-100.00,WNW,287,7.0,20.0,39,-99.99,,,-99.99,,2013-06-13 21:34:00,
2013-06-13 15:43:00,60.0,39.0,-100.00,WNW,293,11.0,27.0,46,-99.99,,,-99.99,,2013-06-13 21:43:00,
2013-06-13 15:52:00,58.0,39.0,-100.00,WNW,294,12.0,24.0,49,-99.99,,,-99.99,,2013-06-13 21:52:00,
2013-06-13 16:01:00,58.0,39.0,-100.00,WNW,294,12.0,24.0,49,-99.99,,,-99.99,,2013-06-13 22:01:00,
2013-06-13 16:11:00,56.0,38.0,-100.00,WNW,303,18.0,31.0,51,-99.99,,,-99.99,,2013-06-13 22:11:00,
2013-06-13 16:22:00,56.0,38.0,-100.00,WNW,303,18.0,31.0,51,-99.99,,,-99.99,,2013-06-13 22:22:00,
2013-06-13 16:32:00,54.0,37.0,-100.00,NW,305,20.0,31.0,52,-99.99,,,-99.99,,2013-06-13 22:32:00,
2013-06-13 16:42:00,54.0,37.0,-100.00,WNW,303,20.0,28.0,53,-99.99,,,-99.99,,2013-06-13 22:42:00,
2013-06-13 16:52:00,54.0,37.0,-100.00,WNW,303,20.0,28.0,53,-99.99,,,-99.99,,2013-06-13 22:52:00,
2013-06-13 17:01:00,53.0,36.0,-100.00,WNW,303,21.0,34.0,53,-99.99,,,-99.99,,2013-06-13 23:01:00,
2013-06-13 17:11:00,53.0,36.0,-100.00,NW,305,21.0,31.0,52,-99.99,,,-99.99,,2013-06-13 23:11:00,
2013-06-13 17:22:00,53.0,34.0,-100.00,WNW,301,19.0,33.0,49,-99.99,,,-99.99,,2013-06-13 23:22:00,
2013-06-13 17:32:00,53.0,34.0,-100.00,WNW,301,19.0,33.0,49,-99.99,,,-99.99,,2013-06-13 23:32:00,
2013-06-13 17:43:00,53.0,34.0,-100.00,WNW,301,18.0,30.0,48,-99.99,,,-99.99,,2013-06-13 23:43:00,
2013-06-13 17:52:00,53.0,34.0,-100.00,WNW,301,18.0,30.0,48,-99.99,,,-99.99,,2013-06-13 23:52:00,
2013-06-13 18:01:00,52.0,33.0,-100.00,NW,310,20.0,28.0,48,-99.99,,,-99.99,,2013-06-14 00:01:00,
2013-06-13 18:11:00,52.0,32.0,-100.00,NW,305,22.0,34.0,47,-99.99,,,-99.99,,2013-06-14 00:11:00,
2013-06-13 18:22:00,52.0,32.0,-100.00,NW,305,22.0,34.0,47,-99.99,,,-99.99,,2013-06-14 00:22:00,
2013-06-13 18:33:00,51.0,32.0,-100.00,NW,309,23.0,37.0,48,-99.99,,,-99.99,,2013-06-14 00:33:00,
2013-06-13 18:43:00,50.0,31.0,-100.00,NW,312,22.0,34.0,48,-99.99,,,-99.99,,2013-06-14 00:43:00,
2013-06-13 18:53:00,50.0,31.0,-100.00,NW,312,22.0,34.0,48,-99.99,,,-99.99,,2013-06-14 00:53:00,
2013-06-13 19:01:00,50.0,32.0,-100.00,NW,310,21.0,30.0,49,-99.99,,,-99.99,,2013-06-14 01:01:00,
2013-06-13 19:11:00,49.0,32.0,-100.00,NW,305,24.0,36.0,51,-99.99,,,-99.99,,2013-06-14 01:11:00,
2013-06-13 19:22:00,47.0,32.0,-100.00,NW,309,30.0,47.0,55,-99.99,,,-99.99,,2013-06-14 01:22:00,
2013-06-13 19:32:00,47.0,32.0,-100.00,NW,309,30.0,47.0,55,-99.99,,,-99.99,,2013-06-14 01:32:00,
2013-06-13 19:43:00,46.0,29.0,-100.00,NW,306,31.0,43.0,52,-99.99,,,-99.99,,2013-06-14 01:43:00,
2013-06-13 19:52:00,46.0,29.0,-100.00,NW,306,31.0,43.0,52,-99.99,,,-99.99,,2013-06-14 01:52:00,
2013-06-13 20:01:00,45.0,27.0,-100.00,NW,311,30.0,44.0,50,-99.99,,,-99.99,,2013-06-14 02:01:00,
2013-06-13 20:11:00,45.0,27.0,-100.00,NW,311,30.0,44.0,50,-99.99,,,-99.99,,2013-06-14 02:11:00,
2013-06-13 20:22:00,43.0,26.0,-100.00,NW,310,34.0,60.0,50,-99.99,,,-99.99,,2013-06-14 02:22:00,
2013-06-13 20:32:00,43.0,26.0,-100.00,NW,310,34.0,60.0,50,-99.99,,,-99.99,,2013-06-14 02:32:00,
2013-06-13 20:43:00,41.0,27.0,-100.00,NW,315,31.0,51.0,56,-99.99,,,-99.99,,2013-06-14 02:43:00,
2013-06-13 20:52:00,39.0,26.0,-100.00,NW,310,29.0,44.0,60,-99.99,,,-99.99,,2013-06-14 02:52:00,
2013-06-13 21:02:00,39.0,26.0,-100.00,NW,310,29.0,44.0,60,-99.99,,,-99.99,,2013-06-14 03:02:00,
2013-06-13 21:11:00,37.0,29.0,-100.00,NW,317,35.0,58.0,73,-99.99,,,-99.99,,2013-06-14 03:11:00,
2013-06-13 21:22:00,37.0,29.0,-100.00,NW,317,35.0,58.0,73,-99.99,,,-99.99,,2013-06-14 03:22:00,
2013-06-13 21:34:00,34.0,30.0,-100.00,NW,311,31.0,54.0,84,-99.99,,,-99.99,,2013-06-14 03:34:00,
2013-06-13 21:43:00,34.0,31.0,-100.00,NW,318,30.0,60.0,88,-99.99,,,-99.99,,2013-06-14 03:43:00,
2013-06-13 21:53:00,34.0,31.0,-100.00,NW,318,30.0,60.0,88,-99.99,,,-99.99,,2013-06-14 03:53:00,
2013-06-13 22:01:00,33.0,31.0,-100.00,NW,310,29.0,52.0,91,-99.99,,,-99.99,,2013-06-14 04:01:00,
2013-06-13 22:12:00,32.0,30.0,-100.00,NW,322,31.0,53.0,93,-99.99,,,-99.99,,2013-06-14 04:12:00,
2013-06-13 22:22:00,31.0,30.0,-100.00,NW,321,29.0,44.0,96,-99.99,,,-99.99,,2013-06-14 04:22:00,
2013-06-13 22:33:00,31.0,30.0,-100.00,NW,321,29.0,44.0,96,-99.99,,,-99.99,,2013-06-14 04:33:00,
2013-06-13 22:43:00,31.0,30.0,-100.00,NW,319,28.0,46.0,97,-99.99,,,-99.99,,2013-06-14 04:43:00,
2013-06-13 22:53:00,31.0,30.0,-100.00,NW,319,28.0,46.0,97,-99.99,,,-99.99,,2013-06-14 04:53:00,
2013-06-13 23:01:00,31.0,30.0,-100.00,NW,311,27.0,43.0,96,-99.99,,,-99.99,,2013-06-14 05:01:00,
2013-06-13 23:11:00,31.0,29.0,-100.00,WNW,282,14.0,35.0,93,-99.99,,,-99.99,,2013-06-14 05:11:00,
2013-06-13 23:22:00,31.0,29.0,-100.00,WNW,282,14.0,35.0,93,-99.99,,,-99.99,,2013-06-14 05:22:00,
2013-06-13 23:33:00,32.0,29.0,-100.00,WSW,249,10.0,26.0,87,-99.99,,,-99.99,,2013-06-14 05:33:00,
2013-06-13 23:43:00,32.0,29.0,-100.00,SW,215,8.0,16.0,87,-99.99,,,-99.99,,2013-06-14 05:43:00,
2013-06-13 23:52:00,32.0,29.0,-100.00,SW,215,8.0,16.0,87,-99.99,,,-99.99,,2013-06-14 05:52:00,